This demonstration page uses our WeatherBlox Daily Observations layout. Learn more.

Left ArrowRight Arrow

39.51506, -84.39828

Hourly Observations for May 10, 2017

Temp ( °F °C ) Dew Point ( °F °C ) Humidity (%) Winds ( mph kmh ) Pressure ( in mb ) Visibility ( mi km ) Precip ( " mm )
12:15 am 00:15 Cloudy with Light Rain 57 13.8 51 10.5 81 81 N N/A 29.97 1015 10 16 N/A
12:35 am 00:35 Cloudy 57 13.8 51 10.5 81 81 N N/A 29.97 1015 10 16 N/A
12:55 am 00:55 Cloudy 57 13.8 51 10.5 81 81 N 3 6 29.97 1015 10 16 N/A
1:15 am 01:15 Cloudy 57 13.8 51 10.5 81 81 N N/A 29.97 1015 10 16 N/A
1:35 am 01:35 Cloudy 57 13.8 51 10.7 82 82 ENE 3 6 29.97 1015 10 16 N/A
1:55 am 01:55 Cloudy 57 13.8 52 10.9 83 83 N N/A 29.97 1015 10 16 N/A
2:15 am 02:15 Mostly Cloudy 56 13.1 50 10.2 83 83 N N/A 29.97 1015 10 16 N/A
2:35 am 02:35 Mostly Cloudy 57 13.8 52 11 83 83 N N/A 29.97 1015 7 11 N/A
2:55 am 02:55 Cloudy 57 13.8 52 11 83 83 N N/A 29.97 1015 7 11 N/A
3:15 am 03:15 Cloudy 57 13.8 52 11 83 83 N N/A 29.94 1014 7 11 N/A
3:35 am 03:35 Cloudy 56 13.5 51 10.6 83 83 N N/A 29.94 1014 7 11 N/A
3:55 am 03:55 Cloudy 57 13.8 52 11 83 83 N N/A 29.94 1014 7 11 N/A
4:15 am 04:15 Cloudy 57 13.8 52 11 83 83 NE 3 6 29.94 1014 7 11 N/A
4:35 am 04:35 Cloudy 57 13.8 52 11 83 83 N N/A 29.97 1015 7 11 N/A
4:55 am 04:55 Cloudy 57 13.8 52 11 83 83 N N/A 29.97 1015 7 11 N/A
5:15 am 05:15 Cloudy 57 13.8 52 11 83 83 NNE 3 6 29.94 1014 10 16 N/A
5:35 am 05:35 Cloudy 57 13.8 52 11 83 83 N N/A 29.97 1015 7 11 N/A
5:55 am 05:55 Cloudy 57 13.8 52 11 83 83 NE 3 6 29.97 1015 7 11 N/A
6:15 am 06:15 Cloudy 57 13.8 52 11 83 83 ENE 3 6 29.97 1015 7 11 N/A
6:30 am 06:30 Cloudy 57 13.8 52 11 83 83 N N/A 29.97 1015 7 11 N/A
6:55 am 06:55 Cloudy with Haze 57 13.8 52 11 83 83 N N/A 29.97 1015 5 8 N/A
7:15 am 07:15 Cloudy with Haze 57 13.8 51 10.8 82 82 E 3 6 29.97 1015 4 6 N/A
7:35 am 07:35 Cloudy with Haze 57 13.8 51 10.8 82 82 ENE 3 6 29.97 1015 4 6 N/A
7:55 am 07:55 Cloudy with Haze 57 13.8 52 10.9 83 83 N N/A 29.97 1015 3 5 N/A
8:15 am 08:15 Cloudy with Haze 57 13.8 52 11 83 83 N N/A 30.00 1016 3 5 N/A
8:35 am 08:35 Cloudy with Haze 57 13.8 52 10.9 83 83 N N/A 30.00 1016 4 6 N/A
8:55 am 08:55 Cloudy with Haze 57 13.8 51 10.8 82 82 N N/A 30.00 1016 4 6 N/A
9:15 am 09:15 Cloudy with Haze 58 14.2 52 11.1 82 82 N N/A 30.00 1016 4 6 N/A
9:35 am 09:35 Cloudy with Haze 59 15 53 11.9 82 82 N N/A 30.00 1016 4 6 N/A
9:55 am 09:55 Cloudy with Haze 60 15.3 54 12 81 81 SE 3 6 29.97 1015 4 6 N/A
10:15 am 10:15 Cloudy with Haze 60 15.3 53 11.9 80 80 N N/A 29.97 1015 4 6 N/A
10:35 am 10:35 Cloudy with Haze 60 15.3 53 11.6 79 79 N N/A 29.97 1015 5 8 N/A
10:55 am 10:55 Cloudy with Haze 60 15.4 53 11.9 80 80 NE 5 7 29.97 1015 5 8 N/A
11:15 am 11:15 Cloudy with Haze 61 15.9 54 12.2 79 79 NNE 6 9 29.97 1015 5 8 N/A
11:35 am 11:35 Cloudy with Haze 61 16 54 12 77 77 NNE 3 6 29.97 1015 5 8 N/A
11:55 am 11:55 Cloudy with Haze 61 16.3 54 12.4 78 78 NE 5 7 29.97 1015 5 8 N/A
12:15 pm 12:15 Cloudy 63 17 55 12.6 75 75 NE 3 6 29.97 1015 7 11 N/A
12:35 pm 12:35 Cloudy 64 17.8 56 13.2 75 75 N N/A 29.97 1015 7 11 N/A
12:55 pm 12:55 Cloudy 67 19.4 58 14.3 73 73 N N/A 29.97 1015 7 11 N/A
1:15 pm 13:15 Mostly Cloudy 69 20.8 59 14.9 69 69 N N/A 29.97 1015 7 11 N/A
1:35 pm 13:35 Mostly Cloudy 69 20.8 58 14.7 68 68 N N/A 29.94 1014 7 11 N/A
1:55 pm 13:55 Partly Cloudy 69 20.8 58 14.2 66 66 N N/A 29.94 1014 10 16 N/A
2:15 pm 14:15 Partly Cloudy 72 22.3 59 15.2 64 64 ENE 3 6 29.94 1014 10 16 N/A
2:35 pm 14:35 Partly Cloudy 74 23.6 61 16.1 63 63 N N/A 29.94 1014 7 11 N/A
2:55 pm 14:55 Partly Cloudy 74 23.2 60 15.8 63 63 N N/A 29.94 1014 10 16 N/A
3:15 pm 15:15 Mostly Cloudy with Haze 74 23.6 61 15.9 62 62 N N/A 29.94 1014 2 2 N/A
3:35 pm 15:35 Partly Cloudy 74 23.6 60 15.8 62 62 NW 3 6 29.91 1013 10 16 N/A
3:55 pm 15:55 Sunny 74 23.6 60 15.4 60 60 N N/A 29.91 1013 7 11 N/A
4:15 pm 16:15 Sunny 76 24.4 61 16.1 60 60 N N/A 29.91 1013 10 16 N/A
4:35 pm 16:35 Sunny 77 25.1 62 16.7 60 60 NNE 5 7 29.91 1013 7 11 N/A
4:55 pm 16:55 Sunny 77 25.1 62 16.4 59 59 NE 5 7 29.88 1012 10 16 N/A
5:15 pm 17:15 Sunny 77 25.1 61 16.2 58 58 NE 3 6 29.88 1012 7 11 N/A
5:35 pm 17:35 Partly Cloudy 77 25.1 60 15.8 56 56 N N/A 29.88 1012 10 16 N/A
5:55 pm 17:55 Partly Cloudy 77 25.2 60 15.7 56 56 N N/A 29.88 1012 10 16 N/A
6:15 pm 18:15 Mostly Cloudy 77 25.1 63 17 61 61 N N/A 29.88 1012 10 16 N/A
6:35 pm 18:35 Mostly Cloudy 77 24.9 64 17.6 64 64 ENE 6 9 29.88 1012 10 16 N/A
6:55 pm 18:55 Mostly Cloudy 77 25.1 63 17 61 61 NE 6 9 29.88 1012 10 16 N/A
7:15 pm 19:15 Mostly Cloudy 74 23.6 62 16.7 65 65 N N/A 29.88 1012 10 16 N/A
7:35 pm 19:35 Cloudy 74 23.6 63 17 67 67 N N/A 29.85 1011 10 16 N/A
7:55 pm 19:55 Cloudy 74 23.6 64 17.9 70 70 ENE 3 6 29.88 1012 10 16 N/A
8:15 pm 20:15 Mostly Cloudy 74 23.6 63 17.1 67 67 N N/A 29.88 1012 10 16 N/A
8:35 pm 20:35 Mostly Cloudy 74 23.6 64 17.5 69 69 N N/A 29.88 1012 10 16 N/A
8:55 pm 20:55 Mostly Cloudy 74 23.6 63 17 67 67 ESE 3 6 29.88 1012 10 16 N/A
9:15 pm 21:15 Partly Cloudy 74 23.6 64 17.5 69 69 N N/A 29.88 1012 10 16 N/A
9:35 pm 21:35 Clear 69 20.8 62 16.9 78 78 N N/A 29.85 1011 10 16 N/A
9:55 pm 21:55 Clear 69 20.8 63 17.3 80 80 N N/A 29.85 1011 7 11 N/A
10:15 pm 22:15 Clear 69 20.8 63 17.2 80 80 N N/A 29.85 1011 7 11 N/A
10:35 pm 22:35 Hazy 65 18.6 60 15.6 83 83 N N/A 29.85 1011 5 8 N/A
10:55 pm 22:55 Mostly Cloudy 67 19.5 61 16.2 81 81 N N/A 29.85 1011 7 11 N/A
11:15 pm 23:15 Cloudy with Haze 67 19.5 62 16.4 82 82 N N/A 29.85 1011 5 8 N/A
11:35 pm 23:35 Mostly Cloudy 67 19.5 61 16.3 82 82 N N/A 29.85 1011 7 11 N/A
11:55 pm 23:55 Mostly Cloudy 67 19.5 61 16.3 82 82 N N/A 29.83 1010 7 11 N/A

Powered by AerisWeather